Total_Precipitation_Accumulation
0.01 0.06 0.18 0.27 0.24 0.21 0.20 0.19 0.18 0.14 0.13 0.17 0.21 0.23 0.24 0.24 0.23 0.23 0.23 0.24 0.25 0.27 0.29 0.29 0.28 0.27 0.25 0.24 0.23 0.21 0.23 0.28 0.30 0.28 0.29 0.33 0.36 0.33 0.31 0.28 0.19 0.23 0.37
0.02 0.07 0.16 0.20 0.19 0.18 0.17 0.14 0.11 0.09 0.10 0.13 0.16 0.15 0.15 0.17 0.20 0.21 0.21 0.21 0.22 0.24 0.28 0.29 0.26 0.22 0.22 0.20 0.19 0.18 0.18 0.19 0.22 0.23 0.20 0.16 0.30 0.35 0.31 0.32 0.28 0.42 0.49
0.01 0.05 0.10 0.14 0.15 0.15 0.14 0.11 0.07 0.07 0.07 0.10 0.11 0.11 0.10 0.12 0.14 0.16 0.17 0.18 0.17 0.17 0.18 0.20 0.21 0.18 0.15 0.15 0.15 0.14 0.15 0.14 0.13 0.15 0.15 0.10 0.24 0.42 0.39 0.36 0.30 0.45 0.48
0.01 0.04 0.05 0.08 0.12 0.13 0.11 0.09 0.07 0.06 0.06 0.09 0.09 0.08 0.09 0.10 0.11 0.12 0.12 0.12 0.13 0.13 0.13 0.13 0.13 0.13 0.11 0.09 0.10 0.11 0.12 0.12 0.09 0.08 0.03 0.05 0.23 0.41 0.43 0.37 0.32 0.38 0.44
0.02 0.03 0.05 0.09 0.10 0.09 0.09 0.07 0.05 0.04 0.05 0.09 0.08 0.07 0.08 0.08 0.08 0.09 0.08 0.08 0.07 0.08 0.09 0.10 0.10 0.12 0.11 0.09 0.08 0.10 0.12 0.10 0.08 0.04 0.01 0.03 0.16 0.33 0.33 0.34 0.32 0.37 0.42
0.01 0.01 0.04 0.07 0.08 0.07 0.07 0.05 0.03 0.03 0.05 0.07 0.06 0.05 0.06 0.06 0.06 0.06 0.05 0.05 0.05 0.05 0.06 0.07 0.08 0.11 0.12 0.11 0.12 0.17 0.19 0.16 0.08 0.02 0.01 0.02 0.07 0.20 0.30 0.37 0.37 0.36 0.33
0.00 0.01 0.03 0.06 0.08 0.07 0.06 0.04 0.03 0.03 0.04 0.05 0.03 0.04 0.04 0.05 0.06 0.06 0.04 0.04 0.05 0.05 0.06 0.07 0.07 0.10 0.12 0.13 0.15 0.20 0.27 0.22 0.10 0.12 0.08 0.05 0.07 0.14 0.23 0.34 0.38 0.37 0.37
0.00 0.01 0.03 0.08 0.08 0.07 0.06 0.05 0.03 0.03 0.04 0.04 0.02 0.02 0.02 0.02 0.03 0.04 0.04 0.05 0.07 0.07 0.07 0.06 0.06 0.07 0.09 0.12 0.15 0.19 0.23 0.16 0.13 0.21 0.23 0.18 0.15 0.19 0.24 0.32 0.37 0.40 0.42
0.00 0.01 0.03 0.05 0.06 0.07 0.07 0.05 0.04 0.04 0.04 0.03 0.02 0.02 0.01 0.01 0.02 0.02 0.02 0.04 0.06 0.06 0.07 0.06 0.05 0.05 0.06 0.08 0.11 0.16 0.19 0.15 0.21 0.35 0.30 0.32 0.24 0.30 0.35 0.33 0.33 0.39 0.43
0.01 0.01 0.02 0.03 0.04 0.04 0.05 0.05 0.04 0.04 0.04 0.03 0.02 0.01 0.01 0.01 0.01 0.02 0.01 0.02 0.04 0.05 0.06 0.07 0.07 0.06 0.05 0.05 0.06 0.09 0.12 0.11 0.15 0.25 0.36 0.30 0.27 0.40 0.49 0.43 0.37 0.37 0.43
0.01 0.01 0.02 0.02 0.02 0.03 0.04 0.03 0.04 0.04 0.03 0.02 0.02 0.01 0.01 0.00 0.01 0.01 0.01 0.01 0.02 0.04 0.05 0.05 0.06 0.06 0.05 0.02 0.02 0.04 0.04 0.03 0.11 0.22 0.29 0.25 0.30 0.45 0.57 0.53 0.51 0.44 0.45
0.01 0.01 0.02 0.02 0.02 0.02 0.02 0.03 0.03 0.03 0.02 0.01 0.01 0.00 0.00 0.00 0.00 0.00 0.01 0.02 0.02 0.04 0.06 0.07 0.06 0.05 0.04 0.02 0.02 0.07 0.02 0.00 0.01 0.05 0.10 0.14 0.21 0.33 0.51 0.59 0.62 0.59 0.55
0.00 0.01 0.01 0.01 0.01 0.01 0.02 0.02 0.02 0.02 0.01 0.01 0.01 0.00 0.00 0.00 0.00 0.00 0.00 0.00 0.01 0.01 0.04 0.08 0.11 0.12 0.14 0.13 0.10 0.12 0.06 0.04 0.03 0.02 0.03 0.07 0.10 0.14 0.26 0.42 0.62 0.69 0.70
0.00 0.01 0.01 0.01 0.01 0.01 0.01 0.01 0.01 0.01 0.01 0.01 0.01 0.00 0.00 0.00 0.00 0.00 0.00 0.00 0.00 0.00 0.01 0.03 0.07 0.14 0.19 0.20 0.16 0.12 0.12 0.12 0.09 0.07 0.04 0.07 0.08 0.08 0.13 0.24 0.42 0.60 0.73
0.00 0.00 0.01 0.01 0.01 0.01 0.01 0.01 0.01 0.01 0.01 0.01 0.01 0.00 0.00 0.00 0.00 0.00 0.00 0.00 0.00 0.00 0.00 0.00 0.01 0.03 0.07 0.12 0.14 0.12 0.12 0.11 0.12 0.14 0.12 0.12 0.10 0.08 0.10 0.15 0.27 0.44 0.62
0.00 0.00 0.00 0.01 0.01 0.01 0.01 0.01 0.01 0.01 0.01 0.01 0.01 0.01 0.01 0.01 0.01 0.01 0.01 0.01 0.01 0.00 0.00 0.00 0.00 0.00 0.00 0.01 0.02 0.05 0.10 0.12 0.15 0.16 0.14 0.13 0.12 0.09 0.09 0.11 0.18 0.31 0.51
0.00 0.00 0.00 0.01 0.01 0.01 0.02 0.02 0.01 0.01 0.01 0.01 0.01 0.01 0.01 0.01 0.01 0.01 0.01 0.01 0.01 0.00 0.00 0.00 0.00 0.00 0.00 0.00 0.00 0.00 0.01 0.03 0.07 0.12 0.12 0.14 0.16 0.13 0.11 0.12 0.14 0.19 0.33
0.00 0.00 0.00 0.01 0.01 0.01 0.02 0.02 0.02 0.02 0.02 0.02 0.02 0.01 0.01 0.01 0.01 0.01 0.01 0.01 0.01 0.00 0.01 0.01 0.01 0.01 0.01 0.00 0.00 0.00 0.00 0.00 0.00 0.02 0.04 0.09 0.14 0.17 0.15 0.15 0.16 0.17 0.22
0.01 0.00 0.01 0.01 0.01 0.01 0.02 0.02 0.02 0.02 0.03 0.02 0.02 0.02 0.01 0.01 0.01 0.01 0.01 0.01 0.01 0.01 0.01 0.01 0.01 0.00 0.00 0.00 0.00 0.00 0.00 0.00 0.00 0.00 0.00 0.02 0.05 0.11 0.15 0.16 0.16 0.16 0.16
0.01 0.01 0.01 0.01 0.01 0.01 0.02 0.02 0.02 0.03 0.03 0.02 0.01 0.01 0.01 0.01 0.01 0.01 0.01 0.01 0.01 0.01 0.01 0.01 0.01 0.00 0.00 0.01 0.00 0.00 0.00 0.00 0.00 0.00 0.00 0.00 0.01 0.05 0.09 0.12 0.14 0.15 0.15
0.01 0.01 0.01 0.01 0.01 0.01 0.02 0.02 0.02 0.02 0.02 0.01 0.01 0.01 0.01 0.01 0.00 0.01 0.01 0.01 0.01 0.01 0.01 0.01 0.00 0.01 0.01 0.00 0.01 0.00 0.00 0.00 0.00 0.00 0.00 0.00 0.00 0.02 0.06 0.10 0.13 0.14 0.14
0.00 0.01 0.01 0.01 0.01 0.01 0.01 0.01 0.01 0.01 0.01 0.01 0.01 0.01 0.00 0.01 0.00 0.01 0.01 0.01 0.02 0.01 0.01 0.00 0.01 0.02 0.02 0.01 0.03 0.06 0.04 0.01 0.00 0.00 0.00 0.00 0.00 0.00 0.02 0.06 0.12 0.13 0.12
0.00 0.00 0.00 0.00 0.00 0.01 0.01 0.01 0.01 0.02 0.02 0.01 0.01 0.01 0.01 0.01 0.01 0.01 0.01 0.02 0.02 0.02 0.01 0.01 0.02 0.04 0.04 0.02 0.03 0.14 0.24 0.15 0.04 0.00 0.00 0.00 0.00 0.00 0.00 0.02 0.06 0.11 0.14
0.00 0.00 0.00 0.01 0.00 0.01 0.01 0.01 0.01 0.01 0.01 0.01 0.00 0.01 0.01 0.01 0.01 0.01 0.01 0.02 0.02 0.01 0.02 0.02 0.03 0.04 0.08 0.08 0.05 0.06 0.14 0.20 0.24 0.12 0.02 0.03 0.03 0.03 0.02 0.02 0.03 0.07 0.13
0.00 0.00 0.00 0.01 0.01 0.01 0.01 0.01 0.01 0.01 0.01 0.00 0.01 0.01 0.01 0.01 0.01 0.01 0.02 0.02 0.02 0.01 0.02 0.03 0.04 0.05 0.08 0.11 0.11 0.10 0.08 0.07 0.12 0.23 0.11 0.04 0.07 0.08 0.07 0.05 0.06 0.09 0.12
0.00 0.00 0.00 0.01 0.01 0.01 0.01 0.01 0.01 0.01 0.01 0.01 0.01 0.01 0.01 0.01 0.01 0.01 0.02 0.02 0.02 0.02 0.03 0.04 0.05 0.06 0.06 0.08 0.11 0.13 0.16 0.19 0.14 0.19 0.19 0.06 0.03 0.04 0.06 0.08 0.08 0.12 0.15